Probability
0 0 0 0 0 0 0 0 0 0 0 0 0 0 0 0 0 0 0 0 0 0 0 0 0 0 0 0 0 0 0 0 0 0 0 0 0 0 0 0 0 0 0
0 0 0 0 0 0 0 0 0 0 0 0 0 0 0 0 0 0 0 0 0 0 0 0 0 0 0 0 0 0 0 0 0 0 0 0 0 0 0 0 0 0 0
0 0 0 0 0 0 0 0 0 0 0 0 0 0 0 0 0 0 0 0 0 0 0 0 0 0 0 0 0 0 0 0 0 0 0 0 0 0 0 0 0 0 0
0 0 0 0 0 0 0 0 0 0 0 0 0 0 0 0 0 0 0 0 0 0 0 0 0 0 0 0 0 0 0 0 0 0 0 0 0 0 0 0 0 0 0
0 0 0 0 0 0 0 0 0 0 0 0 0 0 0 0 0 0 0 0 0 0 0 0 0 0 0 0 0 0 0 0 0 0 0 0 0 0 0 0 0 0 0
0 0 0 0 0 0 0 0 0 0 0 0 0 0 0 0 0 0 0 0 0 0 0 0 0 0 0 0 0 0 0 0 0 0 0 0 0 0 0 0 0 0 0
0 0 0 0 0 0 0 0 0 0 0 0 0 0 0 0 0 0 0 0 0 0 0 0 0 0 0 0 0 0 0 0 0 0 0 0 0 0 0 0 0 0 0
0 0 0 0 0 0 0 0 0 0 0 0 0 0 0 0 0 0 0 0 0 0 0 0 0 0 0 0 0 0 0 0 0 0 0 0 0 0 0 0 0 0 0
0 0 0 0 0 0 0 0 0 0 0 0 0 0 0 0 0 0 0 0 0 0 0 0 0 0 0 0 0 0 0 0 0 0 0 0 0 0 0 0 0 0 0
0 0 0 0 0 0 0 0 0 0 0 0 0 0 0 0 0 0 0 0 0 0 0 0 0 0 0 0 0 0 0 0 0 0 0 0 0 0 0 0 0 0 0
0 0 0 0 0 0 0 0 0 0 0 0 0 0 0 0 0 0 0 0 0 0 0 0 0 0 0 0 0 0 0 0 0 0 0 0 0 0 0 0 0 0 0
0 0 0 0 0 0 0 0 0 0 0 0 0 0 0 0 0 0 0 0 0 0 0 0 0 0 0 0 0 0 0 0 0 0 0 0 0 0 0 0 0 0 0
0 0 0 0 0 0 0 0 0 0 0 0 0 0 0 0 0 0 0 0 0 0 0 0 0 0 0 0 0 0 0 0 0 0 0 0 0 0 0 0 0 0 0
0 0 0 0 0 0 0 0 0 0 0 0 0 0 0 0 0 0 0 0 0 0 0 0 0 0 0 0 0 0 0 0 0 0 0 0 0 0 0 0 0 0 0
0 0 0 0 0 0 0 0 0 0 0 0 0 0 0 0 0 0 0 0 0 0 0 0 0 0 0 0 0 0 0 0 0 0 0 0 0 0 0 0 0 0 0
0 0 0 0 0 0 0 0 0 0 0 0 0 0 0 0 0 0 0 0 0 0 0 0 0 0 0 0 0 0 0 0 0 0 0 0 0 0 0 0 0 0 0
0 0 0 0 0 0 0 0 0 0 0 0 0 0 0 0 0 0 0 0 0 0 0 0 0 0 0 0 0 0 0 0 0 0 0 0 0 0 0 0 0 0 0
0 0 0 0 0 0 0 0 0 0 0 0 0 0 0 0 0 0 0 0 0 0 0 0 0 0 0 0 0 0 0 0 0 0 0 0 0 0 0 0 0 0 0
0 0 0 0 0 0 0 0 0 0 0 0 0 0 0 0 0 0 0 0 0 0 0 0 0 0 0 0 0 0 0 0 0 0 0 0 0 0 0 0 0 0 0
0 0 0 0 0 0 0 0 0 0 0 0 0 0 0 0 0 0 0 0 0 0 0 0 0 0 0 0 0 0 0 0 0 0 0 0 0 0 0 0 0 0 0
0 0 0 0 0 0 0 0 0 0 0 0 0 0 0 0 0 0 0 0 0 0 0 0 0 0 0 0 0 0 0 0 0 0 0 0 0 0 0 0 0 0 0
0 0 0 0 0 0 0 0 0 0 0 0 0 0 0 0 0 0 0 0 0 0 0 0 0 0 0 0 0 0 0 0 0 0 0 0 0 0 0 0 0 0 0
0 0 0 0 0 0 0 0 0 0 0 0 0 0 0 0 0 0 0 0 0 0 0 0 0 0 0 0 0 0 0 0 0 0 0 0 0 0 0 0 0 0 0
0 0 0 0 0 0 0 0 0 0 0 0 0 0 0 0 0 0 0 0 0 0 0 0 0 0 0 0 0 0 0 0 0 0 0 0 0 0 0 0 0 0 0
0 0 0 0 0 0 0 0 0 0 0 0 0 0 0 0 0 0 0 0 0 0 0 0 0 0 0 0 0 0 0 0 0 0 0 0 0 0 0 0 0 0 0
0 0 0 0 0 0 0 0 0 0 0 0 0 0 0 0 0 0 0 0 0 0 0 0 0 0 0 0 0 0 0 0 0 0 0 0 0 0 0 0 0 0 0
Wind_Speed
8 9 9 10 11 12 13 13 14 14 15 15 15 15 15 15 15 15 15 15 16 16 16 17 17 18 18 18 18 18 18 18 18 18 18 18 18 18 17 15 14 14 17
11 11 10 10 12 12 13 13 14 14 14 14 15 15 14 14 14 14 14 15 15 16 16 17 17 17 17 17 17 17 17 17 16 15 14 16 17 17 17 16 15 13 16
12 11 11 10 11 12 12 13 13 14 14 14 14 14 14 14 14 14 14 14 15 16 16 16 16 16 16 16 16 16 16 15 14 10 9 11 14 16 16 16 16 16 16
11 11 11 11 11 12 12 12 13 13 14 14 14 13 13 13 13 13 13 13 14 15 15 16 16 16 16 16 16 15 15 14 10 6 9 10 11 14 15 16 16 15 15
11 10 11 10 11 12 12 12 13 13 13 14 14 13 13 13 13 12 13 13 14 14 15 15 15 15 15 15 15 14 14 12 7 8 10 10 10 13 14 14 14 14 14
11 10 11 9 11 12 12 12 13 13 13 13 13 13 13 13 12 12 12 13 13 14 14 15 15 14 14 14 13 13 12 8 6 9 9 9 9 12 13 13 13 13 13
11 10 12 9 10 11 11 12 12 13 13 13 13 13 13 12 12 12 12 12 13 13 14 14 14 13 13 13 12 12 10 5 7 8 8 8 10 11 12 12 12 12 12
11 10 11 9 9 9 10 10 11 11 12 12 12 12 12 12 12 12 11 12 12 13 13 13 13 12 12 12 11 10 8 4 7 8 8 8 9 10 11 11 11 11 11
10 10 9 11 10 9 9 9 10 10 10 11 11 10 10 10 10 10 10 10 11 12 12 12 12 12 11 11 10 9 8 4 6 6 6 7 8 10 10 10 10 10 11
9 10 9 10 10 10 10 9 9 9 10 10 10 9 9 9 9 8 8 9 10 11 11 10 11 11 10 10 9 8 5 1 6 5 5 6 7 9 9 9 9 9 9
9 9 9 10 10 9 9 9 9 9 9 10 9 10 8 8 9 7 8 8 9 9 10 10 10 10 9 8 7 5 1 3 4 4 4 6 7 7 8 8 7 8 8
12 11 9 10 10 10 7 8 8 8 9 8 8 9 7 6 5 6 8 7 7 7 8 8 9 9 5 5 5 3 2 3 3 3 4 6 5 6 6 6 6 6 8
13 12 11 10 10 10 7 7 5 5 6 7 9 9 7 6 5 5 5 6 7 7 7 7 7 5 4 3 3 2 2 2 2 2 4 5 4 4 4 4 5 6 7
13 14 12 11 10 10 8 7 6 5 5 6 7 9 7 5 6 6 5 6 6 5 5 5 4 5 4 4 3 3 2 1 1 1 3 3 3 3 2 3 4 5 6
14 14 14 13 12 10 9 7 7 7 7 7 7 8 9 7 7 6 5 5 6 5 6 5 5 5 5 4 3 3 3 2 1 1 1 2 2 2 1 2 3 4 5
15 15 14 14 13 12 10 9 8 7 7 7 7 9 10 8 7 7 7 6 6 6 6 6 6 5 4 4 4 4 3 3 2 2 2 2 1 1 0 2 3 3 4
16 15 15 14 14 13 12 11 8 8 8 8 8 9 11 9 9 8 7 7 7 7 7 6 6 5 5 5 5 5 4 4 4 4 3 3 2 2 2 2 3 4 4
15 16 16 13 14 15 13 11 9 8 9 8 8 9 12 11 11 9 7 8 8 7 7 7 6 6 6 6 5 5 5 4 6 5 5 5 4 3 4 4 4 5 6
16 16 16 16 16 15 14 11 10 9 10 9 9 9 11 12 12 10 8 8 9 8 8 7 7 7 7 6 6 5 5 5 6 6 7 7 6 5 5 4 5 6 7
16 16 17 17 17 15 12 10 9 10 10 9 9 10 12 11 13 11 9 10 10 8 9 9 9 8 7 6 5 5 6 6 6 7 8 7 6 7 7 7 6 6 8
16 17 18 18 17 14 12 12 11 11 10 10 10 12 14 13 14 13 10 11 10 10 11 11 10 10 8 6 5 5 6 8 9 8 7 7 8 8 8 9 7 6 6
17 18 19 19 19 18 14 13 11 11 10 11 10 12 15 15 15 13 14 11 11 10 12 12 11 8 7 8 7 5 5 6 8 9 8 8 9 8 9 10 9 9 7
18 19 17 20 20 20 19 13 10 10 9 10 13 13 15 16 16 15 16 14 13 12 11 13 13 14 10 9 9 7 6 6 3 5 9 8 9 8 9 9 11 11 10
18 18 19 20 21 20 19 16 17 15 15 17 13 12 14 16 17 17 17 16 15 13 13 14 14 12 13 10 9 10 10 6 6 4 5 7 9 10 11 9 10 11 12
17 16 17 19 20 20 21 21 20 18 16 13 14 15 15 14 17 18 17 16 16 14 15 15 14 14 12 12 10 8 10 10 11 8 8 6 7 8 10 11 9 10 11
16 15 16 18 20 20 22 22 22 23 20 18 17 15 14 12 13 18 18 17 16 15 16 16 15 17 14 15 12 11 10 9 10 11 12 11 9 8 9 9 10 9 9
Wind_Direction
151 145 136 139 132 127 125 124 121 119 118 115 112 110 108 105 103 101 99 98 97 94 92 91 89 88 86 85 83 82 81 79 79 80 81 81 81 79 76 72 73 74 72
143 144 135 137 133 129 127 126 124 123 121 118 116 114 111 109 107 104 103 102 100 98 96 95 93 92 90 89 87 85 82 79 77 78 82 82 79 77 75 71 68 73 72
143 143 142 134 133 131 130 129 127 126 123 121 118 116 115 113 111 109 107 106 105 102 101 99 97 95 94 92 90 88 86 83 79 75 81 83 80 76 75 72 71 71 69
145 146 143 134 136 135 133 133 131 128 127 124 121 119 118 117 115 114 112 111 109 107 105 103 101 99 97 95 92 90 88 84 77 74 81 80 80 77 75 72 69 66 65
147 147 137 139 139 139 137 136 134 132 131 128 126 124 122 121 120 118 117 115 113 111 109 107 105 102 99 96 94 92 89 85 81 82 81 80 82 80 78 74 69 65 62
150 150 143 144 142 143 142 140 138 136 134 132 130 128 127 126 124 122 120 117 115 113 112 110 108 105 102 99 96 93 89 86 97 82 80 80 83 83 80 76 73 69 67
154 154 150 147 144 144 145 143 142 139 136 134 132 133 131 130 130 128 124 122 119 117 117 115 112 108 105 101 97 93 84 62 80 81 78 80 81 82 79 77 74 71 71
159 157 154 146 145 146 145 143 142 141 139 137 136 136 136 136 136 134 130 126 125 123 122 120 116 112 107 102 97 88 71 48 87 79 76 78 75 81 83 80 74 75 74
164 165 164 162 158 149 145 142 142 140 139 138 138 135 134 136 137 134 132 132 130 127 125 123 121 116 111 105 98 88 72 28 81 77 71 71 65 79 83 80 76 76 78
173 175 171 170 169 167 161 146 142 140 138 135 131 128 127 128 128 127 138 135 134 132 131 129 127 121 113 107 100 91 82 91 81 81 72 66 61 75 79 79 76 76 81
182 184 181 177 176 173 169 157 153 144 138 139 137 133 147 156 152 151 145 136 136 134 135 134 129 120 117 110 100 97 125 84 84 72 67 55 63 74 80 80 78 79 84
188 189 188 186 181 177 169 169 170 167 164 170 164 163 170 163 158 154 128 127 127 130 135 132 127 133 151 135 126 164 113 98 90 78 68 46 63 75 82 84 88 92 96
192 191 194 191 187 183 177 178 176 174 175 178 175 174 172 168 163 168 158 152 154 159 159 146 157 163 158 146 145 135 117 111 88 86 76 47 54 70 84 92 97 103 106
198 197 196 194 192 191 187 185 183 182 182 183 182 182 179 179 180 178 181 177 176 179 175 176 173 167 164 162 162 154 154 148 100 83 77 50 44 56 88 109 111 115 114
203 201 198 198 197 194 192 191 191 191 192 190 187 190 192 187 188 187 187 186 189 185 186 186 183 176 178 178 181 184 184 183 187 192 127 80 43 43 81 127 132 131 131
207 204 200 200 201 198 198 198 196 197 195 196 196 196 198 198 192 192 194 194 195 194 195 196 193 190 192 192 196 200 207 204 208 217 210 154 117 32 349 181 166 156 149
208 206 203 202 202 202 203 204 202 200 199 202 202 202 201 204 200 199 200 201 200 197 196 199 197 201 202 202 207 208 214 220 222 223 223 227 201 176 207 205 190 186 180
209 207 205 201 203 204 205 205 206 204 204 207 205 205 206 207 205 203 205 206 202 198 200 203 203 205 208 211 214 212 216 219 225 227 228 227 226 217 201 202 210 208 208
212 208 206 204 206 206 207 207 208 207 209 211 209 208 208 207 207 208 210 209 202 204 206 206 211 214 216 216 221 224 226 229 228 227 231 229 227 224 224 202 212 221 221
215 212 210 208 208 206 205 208 210 212 213 214 214 212 209 208 208 211 212 211 206 209 210 210 214 216 225 221 220 232 237 237 234 231 231 228 226 225 226 223 218 217 224
215 214 212 210 208 204 203 205 207 211 212 214 216 215 213 211 208 211 213 212 208 213 214 213 214 216 218 212 219 235 239 236 236 232 229 228 224 223 226 225 227 227 219
216 214 214 214 210 206 207 207 210 212 215 216 215 217 216 213 211 210 213 213 210 215 217 215 213 216 214 204 214 227 246 233 225 227 225 227 229 223 225 226 227 227 228
219 217 214 213 212 210 209 208 207 211 216 214 215 216 215 214 213 213 214 215 213 214 217 215 212 216 217 210 218 219 230 241 229 210 221 224 226 226 227 224 226 227 227
224 220 218 217 214 212 208 208 207 208 213 216 216 215 214 213 215 215 216 215 215 214 218 217 215 217 220 218 214 229 241 259 249 247 214 221 225 229 229 226 226 226 225
229 223 220 219 217 214 210 210 211 217 221 222 218 217 214 211 214 216 217 216 217 217 219 218 214 215 218 222 216 212 226 237 243 253 258 236 223 228 229 229 228 227 225
234 224 222 221 220 216 213 212 214 217 219 220 219 216 214 213 212 215 216 217 218 219 219 219 217 216 218 223 224 219 215 218 220 228 243 250 249 239 225 225 226 226 225